Regional Weather Roundup
Issued by NWS

Home | Current Version | Previous Version | Graphics & Text | Print | Product List | Glossary On
Versions: 1 2 3 4 5 6 7 8 9 10 11 12 13 14 15 16 17 18 19 20 21 22 23 24 25 26 27 28 29 30 31 32 33 34 35 36 37 38 39 40 41 42 43 44 45 46 47 48 49 50
525
ASUS43 KMKX 311700
RWRWI

WISCONSIN REGIONAL WEATHER ROUNDUP
NATIONAL WEATHER SERVICE MILWAUKEE/SULLIVAN WI
1200 PM CDT WED AUG 31 2016

NOTE: "FAIR" INDICATES FEW OR NO CLOUDS BELOW 12,000 FEET WITH NO
SIGNIFICANT WEATHER AND/OR OBSTRUCTIONS TO VISIBILITY.

WIZ001-002-006>008-014>016-023>028-311800-
NORTHWEST WISCONSIN

CITY           SKY/WX    TMP DP  RH WIND       PRES   REMARKS
SUPERIOR ARPT  SUNNY     71  55  56 W3        30.20F
ASHLAND        PTSUNNY   73  55  53 NE9       30.20F
HAYWARD        MOSUNNY   70  50  49 VRB6      30.21F
SIREN          SUNNY     70  51  51 NW6       30.22S
CUMBERLAND     SUNNY     68  50  52 NW9       30.21F
RICE LAKE      SUNNY     71  51  48 NW7       30.22S
CHETEK         NOT AVBL
LADYSMITH      MOSUNNY   71  53  52 N7        30.22S
EAU CLAIRE     SUNNY     74  53  48 N8        30.18F
MENOMONIE      SUNNY     73  50  44 N7        30.20F
NEW RICHMOND   SUNNY     72  52  50 NW7       30.22S
OSCEOLA        SUNNY     71  53  52 N6        30.24F
$$

WIZ003>005-009-010-017-018-311800-
NORTH CENTRAL WISCONSIN

CITY           SKY/WX    TMP DP  RH WIND       PRES   REMARKS
MANITOWISH WTR NOT AVBL
ARBOR VITAE    MOSUNNY   71  57  60 NE7       30.20S
WOODRUFF       MOSUNNY   71  57  60 NE7       30.20S
RHINELANDER    PTSUNNY   67  53  61 NW9       30.19F
EAGLE RIVER    PTSUNNY   69  50  49 N9G17     30.18F
LAND O LAKES   PTSUNNY   68  51  54 N7        30.20S
PHILLIPS       MOSUNNY   68  54  59 N9        30.19F
TOMAHAWK       MOSUNNY   69  52  54 NE7       30.19F
MEDFORD        SUNNY     70  52  53 N8        30.19F
MERRILL        MOSUNNY   71  53  53 N10       30.18F
$$

WIZ029-030-035-036-043>047-311800-
CENTRAL WISCONSIN

CITY           SKY/WX    TMP DP  RH WIND       PRES   REMARKS
WAUSAU         MOSUNNY   70  51  51 N10       30.16S
MOSINEE        MOSUNNY   70  54  56 N7G16     30.18F
MARSHFIELD     SUNNY     75  50  41 N10       30.17S
STEVENS POINT  SUNNY     69  52  54 N5        30.16F
WAUPACA        SUNNY     75  52  44 NW8       30.15S
WAUTOMA        SUNNY     74  51  44 N8        30.14F
WISC RAPIDS    SUNNY     75  51  43 N10       30.17F
CAMP DOUGLAS   NOT AVBL
$$

WIZ011>013-019>022-031-037>040-048>050-311800-
NORTHEAST WISCONSIN

CITY           SKY/WX    TMP DP  RH WIND       PRES   REMARKS
ANTIGO         PTSUNNY   69  53  55 N8G16     30.18S
SHAWANO        MOSUNNY   74  56  53 E5        30.14F
OCONTO         NOT AVBL
STURGEON BAY   SUNNY     70  58  65 NW9       30.13F
GREEN BAY      NOT AVBL
MANITOWOC      NOT AVBL
APPLETON       MOSUNNY   72  50  46 N7        30.13S
CLINTONVILLE   SUNNY     73  50  43 N7        30.14S
OSHKOSH        SUNNY     73  53  49 VRB5      30.13S
$$

WIZ032>034-041-042-053>061-311800-
SOUTHWEST WISCONSIN

CITY           SKY/WX    TMP DP  RH WIND       PRES   REMARKS
LA CROSSE      SUNNY     75  57  53 NW7       30.16F
SPARTA         SUNNY     71  56  58 W5        30.18S
VIROQUA        SUNNY     72  56  57 N7        30.18S
BOSCOBEL       SUNNY     77  54  44 VRB6      30.16S
PRAIRIE DU CHI SUNNY     73  52  46 NW7       30.15F
PLATTEVILLE    SUNNY     72  61  70 N10       30.16S
$$

WIZ056-057-062-063-064-067-068-311800-
SOUTH CENTRAL WISCONSIN

CITY           SKY/WX    TMP DP  RH WIND       PRES   REMARKS
REEDSBURG      NOT AVBL
BARABOO/DELLS  SUNNY     72  51  48 NE7       30.16S
LONE ROCK      NOT AVBL
MINERAL POINT  SUNNY     73  55  53 N13       30.16S
MADISON        MOSUNNY   73  56  54 NE9       30.13F
MIDDLETON      MOSUNNY   73  56  54 NE8       30.15S
WATERTOWN      SUNNY     72  58  61 N10       30.13S
MONROE         MOSUNNY   70  59  68 N10G18    30.14S
JANESVILLE     MOSUNNY   73  54  49 N9        30.12R
$$

WIZ051-052-058>065-066-070>072-311800-
SOUTHEAST WISCONSIN

CITY           SKY/WX    TMP DP  RH WIND       PRES   REMARKS
MILWAUKEE      MOSUNNY   73  58  59 N16       30.11S
WAUKESHA       MOSUNNY   72  55  56 N9        30.13S
MILWAUKEE/TIMM MOSUNNY   73  54  49 NE8       30.12S
RACINE         SUNNY     72  61  68 N14       30.12S
BURLINGTON     MOSUNNY   72  56  57 N9        30.11S
KENOSHA        MOSUNNY   73  60  63 N12       30.11R
FOND DU LAC    SUNNY     74  54  49 NE9       30.13F
SHEBOYGAN      SUNNY     74  52  46 N9        30.12S
WEST BEND      SUNNY     72  52  49 N9        30.12S
JUNEAU         SUNNY     71  56  59 N8        30.15R
$$

LSZ147-162-311800-
LAKE SUPERIOR

STATION/POSITION TIME  TEMP    WIND        PRES    WAVE
                       AIR SEA DIR/SP/G            HT/PER
                 (UTC) (F)     (DEG/KT/KT) (MB)    (FT/S)
W MID LAKE BUOY  1550   65 67  340/  8/ 10 1021.7R   1/ 3
DEVILS ISLAND    1600   66     250/  2/  4 1022.7R
PORT WING        1600   66     290/  6/  7 1023.0
SAXON HARBOR     1540   66     300/  4/  5 1022.7R
$$

LMZ867-665-643>646-311800-
LAKE MICHIGAN

STATION/POSITION TIME  TEMP    WIND        PRES    WAVE
                       AIR SEA DIR/SP/G            HT/PER
                 (UTC) (F)     (DEG/KT/KT) (MB)    (FT/S)
CHAMBERS ISLAND  1600   71      10/  2/  3 1020.3R
S GREEN BAY BUOY 1600   66 72  340/  6/  8 1020.0
N MID LAKE BUOY  1550   67 71  330/  8/ 10 1018.9R   2/ 4
NORTHPORT PIER   1600   68     330/  7/ 10 1020.0R
SISTER BAY       1637   71     350/ 11/ 12   N/A
ALGOMA LAKESHORE 1615          320/  8/  9   N/A
KEWAUNEE LAKESHO 1600   71     330/  6/  9 1019.6S
SHEBOYGAN LAKESH 1600   65      20/ 10/ 11 1019.4R
PORT WASHINGTON  1600   68      40/  6/ 10 1020.3S
ATWATER BUOY     1600   66      10/ 12/ 16   N/A
MILWAUKEE LAKESH 1610   67     360/ 15/ 18   N/A
S MID LAKE BUOY  1550   70 75   30/ 19/ 21 1017.3R   4/ 6
KENOSHA   LAKESH 1600   67      10/ 14/ 16 1018.6S
$$

TC  - TEMPERATURE IN CELSIUS
VSB - VISIBILITY IN STATUTE MILES
WCI - WIND CHILL INDEX
HX  - HEAT INDEX





USA.gov is the U.S. government's official web portal to all federal, state and local government web resources and services.